Regional Weather Roundup
Issued by NWS

Home | Current Version | Previous Version | Graphics & Text | Print | Product List | Glossary On
Versions: 1 2 3 4 5 6 7 8 9 10 11 12 13 14 15 16 17 18 19 20 21 22 23 24 25 26 27 28 29 30 31 32 33 34 35 36 37 38 39 40 41 42 43 44 45 46 47 48 49 50
557
ASUS44 KLIX 211705
RWRLA
LOUISIANA WEATHER ROUNDUP
NATIONAL WEATHER SERVICE NEW ORLEANS LA
1200 PM CDT THU AUG 21 2014

NOTE: "FAIR" INDICATES FEW OR NO CLOUDS BELOW 12,000 FEET WITH NO
      SIGNIFICANT WEATHER AND/OR OBSTRUCTIONS TO VISIBILITY.
      SKY/WX - SKY CONDITION AND SIGNIFICANT WEATHER.
      TMP - AIR TEMPERATURE.    DP   - DEWPOINT TEMPERATURE.
      RH  - RELATIVE HUMIDITY.  PRES - PRESSURE.
      HX  - HEAT INDEX.         WCI  - WIND CHILL INDEX.

*  THESE STATIONS ARE NOT NWS OR FAA STATIONS AND ARE NOT UNDER
   NWS QUALITY CONTROL.

LAZ040-048-061>063-065-066-069-211800-
SOUTHEAST LOUISIANA

CITY           SKY/WX    TMP DP  RH WIND       PRES   REMARKS
N.O. AUDUBON   NOT AVBL
N.O. INTL ARPT PTSUNNY   92  76  59 NE5       30.13F HX 104
N.O. LAKEFRONT CLOUDY    85  77  77 VRB3      30.15S HX  95
N.O. DOWNTOWN* FAIR      93  72  49 CALM      30.14F HX 100
SLIDELL        MOSUNNY   91  74  57 SW7       30.13F HX 100
BATON ROUGE    PTSUNNY   91  75  59 VRB5      30.13F HX 101
BOOTHVILLE     SUNNY     90  73  57 CALM      30.15F HX  98
BELLE CHASSE   PTSUNNY   91  74  57 W3        30.13F HX 100
BOGALUSA*      FAIR      92  72  52 W5        30.16S HX  99
GALLIANO*      NOT AVBL
NEW ROADS*     FAIR      89  76  66 SW5       30.13F HX  99
GONZALES*      FAIR      89  76  66 CALM      30.13S HX 101
HAMMOND*       MOSUNNY   91  70  49 SW3       30.15S HX  97
HOUMA*         MOSUNNY   93  73  52 CALM      30.13F HX 102
PORT FOURCHON* MOSUNNY   90  75  62 SW6       30.16S HX 100

$$

LAZ041-044-053-054-211800-
SOUTHWEST LOUISIANA

CITY           SKY/WX    TMP DP  RH WIND       PRES   REMARKS
LAKE CHARLES   MOSUNNY   90  76  63 SW12      30.11S HX 101
LAFAYETTE      PTSUNNY   91  77  63 S7        30.12F HX 104
PATTERSON        N/A    N/A N/A N/A MISG        N/A
SALT POINT       N/A     92  79  65 VRB6      30.12F HX 108
NEW IBERIA     PTSUNNY   91  77  63 SW7       30.12F HX 104
CHENAULT AIRPK NOT AVBL

$$

LAZ027-028-211800-
CENTRAL LOUISIANA

CITY           SKY/WX    TMP DP  RH WIND       PRES   REMARKS
FORT POLK      MOSUNNY   89  77  67 S9        30.12S HX 101
ALEXANDRIA INT MOSUNNY   89  77  67 SW7       30.10S HX 101
ALEXANDRIA     PTSUNNY   91  77  63 S7        30.12F HX 104

$$

LAZ001-002-211800-
NORTHWEST LOUISIANA

CITY           SKY/WX    TMP DP  RH WIND       PRES   REMARKS
SHREVEPORT     MOSUNNY   88  74  63 SW12      30.10S HX  96
BARKSDALE AFB  MOSUNNY   90  73  58 SW7       30.11S HX  98
DTN SHREVEPORT PTSUNNY   87  74  64 W7        30.10S HX  95

$$

LAZ014-016-211800-
NORTHEAST LOUISIANA

CITY           SKY/WX    TMP DP  RH WIND       PRES   REMARKS
MONROE         PTSUNNY   89  77  67 VRB7      30.12F HX 101
TALLULAH       MOSUNNY   91  74  57 VRB5      30.12F HX 100

$$




USA.gov is the U.S. government's official web portal to all federal, state and local government web resources and services.